TimeEST,TemperatureF,Dew PointF,Humidity,Sea Level PressureIn,VisibilityMPH,Wind Direction,Wind SpeedMPH,Gust SpeedMPH,PrecipitationIn,Events,Conditions,WindDirDegrees,DateUTC
12:22 AM,30.2,28.4,93,30.42,0.5,Calm,Calm,-,N/A,Fog,Light Freezing Fog,0,2012-11-19 05:22:00
12:33 AM,30.2,28.4,93,30.41,0.5,Calm,Calm,-,N/A,Fog,Light Freezing Fog,0,2012-11-19 05:33:00
12:45 AM,30.2,28.4,93,30.41,2.0,SE,3.5,-,N/A,,Mostly Cloudy,130,2012-11-19 05:45:00
12:54 AM,30.0,28.9,96,30.43,2.5,SE,3.5,-,N/A,,Mostly Cloudy,140,2012-11-19 05:54:00
1:01 AM,30.2,30.2,100,30.40,0.8,Calm,Calm,-,N/A,,Mist,0,2012-11-19 06:01:00
1:12 AM,32.0,30.2,93,30.40,0.2,SSE,3.5,-,N/A,Fog,Fog,160,2012-11-19 06:12:00
1:25 AM,32.0,30.2,93,30.39,0.2,SE,3.5,-,N/A,Fog,Fog,140,2012-11-19 06:25:00
1:54 AM,32.0,30.9,96,30.42,0.2,South,3.5,-,N/A,Fog,Fog,170,2012-11-19 06:54:00
2:54 AM,30.9,30.9,100,30.41,0.2,SSE,4.6,-,N/A,Fog,Light Freezing Fog,160,2012-11-19 07:54:00
3:45 AM,28.4,28.4,100,30.38,0.2,Calm,Calm,-,N/A,Fog,Light Freezing Fog,0,2012-11-19 08:45:00
3:54 AM,28.9,28.0,96,30.41,0.2,Calm,Calm,-,N/A,Fog,Light Freezing Fog,0,2012-11-19 08:54:00
4:05 AM,26.6,24.8,93,30.38,0.2,Calm,Calm,-,N/A,Fog,Light Freezing Fog,0,2012-11-19 09:05:00
4:29 AM,26.6,26.6,100,30.38,0.2,SSE,3.5,-,N/A,Fog,Light Freezing Fog,150,2012-11-19 09:29:00
4:44 AM,26.6,26.6,100,30.38,0.5,Calm,Calm,-,N/A,Fog,Light Freezing Fog,0,2012-11-19 09:44:00
4:54 AM,26.1,26.1,100,30.40,1.2,SE,4.6,-,N/A,,Clear,140,2012-11-19 09:54:00
5:19 AM,26.6,26.6,100,30.37,0.8,SSE,4.6,-,N/A,,Clear,150,2012-11-19 10:19:00
5:26 AM,28.4,26.6,93,30.37,2.0,SSE,5.8,-,N/A,,Clear,160,2012-11-19 10:26:00
5:38 AM,28.4,28.4,100,30.37,1.5,SSE,3.5,-,N/A,,Clear,150,2012-11-19 10:38:00
5:54 AM,28.0,26.1,92,30.40,0.8,Calm,Calm,-,N/A,,Clear,0,2012-11-19 10:54:00
6:03 AM,28.4,26.6,93,30.37,1.0,Calm,Calm,-,N/A,,Clear,0,2012-11-19 11:03:00
6:10 AM,26.6,26.6,100,30.37,0.2,Calm,Calm,-,N/A,Fog,Light Freezing Fog,0,2012-11-19 11:10:00
6:54 AM,26.1,23.0,88,30.40,0.2,SSE,3.5,-,N/A,Fog,Light Freezing Fog,150,2012-11-19 11:54:00
7:03 AM,28.4,28.4,100,30.36,0.8,SE,4.6,-,N/A,,Mist,130,2012-11-19 12:03:00
7:10 AM,30.2,30.2,100,30.36,1.0,SE,3.5,-,N/A,,Mist,130,2012-11-19 12:10:00
7:13 AM,30.2,30.2,100,30.36,0.8,Calm,Calm,-,N/A,,Mist,0,2012-11-19 12:13:00
7:22 AM,30.2,28.4,93,30.36,0.2,Calm,Calm,-,N/A,Fog,Light Freezing Fog,0,2012-11-19 12:22:00
7:54 AM,27.0,26.1,96,30.39,0.2,SE,3.5,-,N/A,Fog,Light Freezing Fog,140,2012-11-19 12:54:00
8:00 AM,28.4,28.4,100,30.36,0.1,SSE,4.6,-,N/A,Fog,Light Freezing Fog,150,2012-11-19 13:00:00
8:29 AM,32.0,30.2,93,30.36,0.5,SSE,6.9,-,N/A,Fog,Fog,160,2012-11-19 13:29:00
8:54 AM,32.0,32.0,100,30.39,0.2,SSE,9.2,-,N/A,Fog,Fog,160,2012-11-19 13:54:00
8:58 AM,32.0,32.0,100,30.36,0.1,SSE,6.9,-,N/A,Fog,Fog,160,2012-11-19 13:58:00
9:54 AM,33.1,33.1,100,30.38,0.1,South,4.6,-,N/A,Fog,Fog,180,2012-11-19 14:54:00
10:15 AM,33.8,33.8,100,30.34,0.1,SSE,4.6,-,N/A,Fog,Fog,160,2012-11-19 15:15:00
10:54 AM,35.1,35.1,100,30.37,0.0,Calm,Calm,-,N/A,Fog,Fog,0,2012-11-19 15:54:00
11:15 AM,35.6,35.6,100,30.33,0.1,Calm,Calm,-,N/A,Fog,Fog,0,2012-11-19 16:15:00
11:28 AM,37.4,37.4,100,30.33,0.5,SE,3.5,-,N/A,Fog,Fog,140,2012-11-19 16:28:00
11:33 AM,37.4,37.4,100,30.32,1.0,SE,3.5,-,N/A,,Overcast,140,2012-11-19 16:33:00
11:54 AM,37.9,37.0,97,30.34,1.5,ESE,3.5,-,N/A,,Overcast,120,2012-11-19 16:54:00
12:21 PM,39.2,39.2,100,30.29,2.0,SE,3.5,-,N/A,,Overcast,130,2012-11-19 17:21:00
12:39 PM,41.0,39.2,93,30.29,2.5,ESE,3.5,-,N/A,,Overcast,120,2012-11-19 17:39:00
12:54 PM,42.1,41.0,96,30.30,3.0,ESE,3.5,-,N/A,,Overcast,120,2012-11-19 17:54:00
1:54 PM,48.9,39.0,69,30.27,10.0,SSE,6.9,-,N/A,,Overcast,150,2012-11-19 18:54:00
2:54 PM,46.9,36.0,66,30.27,10.0,SSE,6.9,-,N/A,,Overcast,160,2012-11-19 19:54:00
3:54 PM,46.9,37.0,68,30.27,10.0,SE,4.6,-,N/A,,Overcast,140,2012-11-19 20:54:00
4:54 PM,44.1,36.0,73,30.25,10.0,SE,3.5,-,N/A,,Clear,130,2012-11-19 21:54:00
5:54 PM,41.0,35.1,79,30.25,10.0,SSE,4.6,-,N/A,,Clear,160,2012-11-19 22:54:00
6:54 PM,39.9,36.0,86,30.24,10.0,South,4.6,-,N/A,,Clear,170,2012-11-19 23:54:00
7:54 PM,41.0,36.0,82,30.22,10.0,SSE,4.6,-,N/A,,Scattered Clouds,160,2012-11-20 00:54:00
8:54 PM,41.0,35.1,79,30.22,10.0,Calm,Calm,-,N/A,,Scattered Clouds,0,2012-11-20 01:54:00
9:54 PM,39.9,35.1,83,30.21,10.0,Calm,Calm,-,N/A,,Mostly Cloudy,0,2012-11-20 02:54:00
10:54 PM,39.9,35.1,83,30.18,10.0,Calm,Calm,-,N/A,,Mostly Cloudy,0,2012-11-20 03:54:00
11:54 PM,39.0,34.0,82,30.18,10.0,Calm,Calm,-,N/A,,Mostly Cloudy,0,2012-11-20 04:54:00